TimeEST,TemperatureF,Dew PointF,Humidity,Sea Level PressureIn,VisibilityMPH,Wind Direction,Wind SpeedMPH,Gust SpeedMPH,PrecipitationIn,Events,Conditions,WindDirDegrees,DateUTC
12:15 AM,21.0,-2.9,35,30.21,10.0,Calm,Calm,-,N/A,,Clear,0,2013-02-18 05:15:00
12:35 AM,20.8,-6.7,30,30.22,10.0,Calm,Calm,-,N/A,,Clear,0,2013-02-18 05:35:00
12:55 AM,21.0,-4.7,32,30.22,10.0,Calm,Calm,-,N/A,,Clear,0,2013-02-18 05:55:00
1:15 AM,20.1,-5.1,33,30.23,10.0,Calm,Calm,-,N/A,,Clear,0,2013-02-18 06:15:00
1:35 AM,19.4,-2.2,39,30.23,10.0,Calm,Calm,-,N/A,,Clear,0,2013-02-18 06:35:00
1:55 AM,19.4,-3.8,36,30.23,10.0,Calm,Calm,-,N/A,,Clear,0,2013-02-18 06:55:00
2:15 AM,18.5,-2.7,39,30.24,10.0,Calm,Calm,-,N/A,,Clear,0,2013-02-18 07:15:00
2:35 AM,19.0,-0.8,42,30.25,10.0,Calm,Calm,-,N/A,,Clear,0,2013-02-18 07:35:00
2:55 AM,19.4,0.7,44,30.25,10.0,Calm,Calm,-,N/A,,Clear,0,2013-02-18 07:55:00
3:15 AM,18.5,-0.0,44,30.25,10.0,Calm,Calm,-,N/A,,Clear,0,2013-02-18 08:15:00
3:35 AM,17.8,2.3,51,30.25,10.0,Calm,Calm,-,N/A,,Clear,0,2013-02-18 08:35:00
3:55 AM,18.7,1.4,47,30.25,10.0,Calm,Calm,-,N/A,,Clear,0,2013-02-18 08:55:00
4:15 AM,18.1,1.0,47,30.25,10.0,Calm,Calm,-,N/A,,Clear,0,2013-02-18 09:15:00
4:35 AM,18.3,2.3,50,30.26,10.0,Calm,Calm,-,N/A,,Clear,0,2013-02-18 09:35:00
4:55 AM,18.9,7.7,62,30.27,10.0,Calm,Calm,-,N/A,,Clear,0,2013-02-18 09:55:00
5:15 AM,19.0,4.8,54,30.28,10.0,Calm,Calm,-,N/A,,Clear,0,2013-02-18 10:15:00
5:35 AM,19.0,4.3,53,30.29,10.0,Calm,Calm,-,N/A,,Clear,0,2013-02-18 10:35:00
5:55 AM,18.0,2.3,50,30.29,10.0,Calm,Calm,-,N/A,,Clear,0,2013-02-18 10:55:00
6:15 AM,16.9,2.3,53,30.29,10.0,Calm,Calm,-,N/A,,Clear,0,2013-02-18 11:15:00
6:35 AM,18.1,5.7,58,30.29,10.0,Calm,Calm,-,N/A,,Clear,0,2013-02-18 11:35:00
6:55 AM,17.8,4.6,57,30.30,10.0,Calm,Calm,-,N/A,,Clear,0,2013-02-18 11:55:00
7:15 AM,17.6,4.6,57,30.30,10.0,Calm,Calm,-,N/A,,Clear,0,2013-02-18 12:15:00
7:55 AM,22.1,10.6,61,30.31,10.0,Calm,Calm,-,N/A,,Clear,0,2013-02-18 12:55:00
8:15 AM,26.8,15.1,61,30.32,10.0,Calm,Calm,-,N/A,,Clear,0,2013-02-18 13:15:00
8:35 AM,31.5,18.1,58,30.32,10.0,Calm,Calm,-,N/A,,Clear,0,2013-02-18 13:35:00
8:55 AM,34.3,22.3,61,30.32,10.0,Calm,Calm,-,N/A,,Clear,0,2013-02-18 13:55:00
9:35 AM,38.5,19.6,47,30.33,10.0,Calm,Calm,-,N/A,,Clear,0,2013-02-18 14:35:00
9:55 AM,39.6,17.8,41,30.32,10.0,SSW,3.5,-,N/A,,Clear,200,2013-02-18 14:55:00
10:15 AM,41.9,15.8,35,30.32,10.0,SSW,4.6,-,N/A,,Clear,200,2013-02-18 15:15:00
10:55 AM,44.2,12.9,28,30.32,10.0,South,4.6,-,N/A,,Clear,180,2013-02-18 15:55:00
11:15 AM,45.9,11.3,25,30.32,10.0,SSE,6.9,-,N/A,,Clear,160,2013-02-18 16:15:00
11:35 AM,46.4,9.7,23,30.31,10.0,SSW,8.1,-,N/A,,Clear,210,2013-02-18 16:35:00
11:55 AM,47.5,10.8,23,30.31,10.0,SSW,6.9,-,N/A,,Clear,200,2013-02-18 16:55:00
12:15 PM,48.9,11.8,23,30.30,10.0,SW,6.9,-,N/A,,Clear,230,2013-02-18 17:15:00
12:35 PM,50.9,13.8,23,30.29,10.0,WSW,4.6,-,N/A,,Clear,240,2013-02-18 17:35:00
12:55 PM,50.9,12.7,22,30.27,10.0,South,6.9,-,N/A,,Clear,180,2013-02-18 17:55:00
1:15 PM,51.1,12.6,21,30.27,10.0,SW,11.5,16.1,N/A,,Clear,220,2013-02-18 18:15:00
1:35 PM,53.1,14.0,21,30.25,10.0,SSW,8.1,-,N/A,,Clear,210,2013-02-18 18:35:00
1:55 PM,53.6,12.4,19,30.24,10.0,South,5.8,-,N/A,,Clear,190,2013-02-18 18:55:00
2:15 PM,54.5,13.1,19,30.24,10.0,South,8.1,-,N/A,,Clear,170,2013-02-18 19:15:00
2:35 PM,54.1,14.0,20,30.23,10.0,SSW,10.4,18.4,N/A,,Clear,210,2013-02-18 19:35:00
2:55 PM,54.7,14.9,21,30.22,10.0,SSW,5.8,-,N/A,,Clear,210,2013-02-18 19:55:00
3:15 PM,54.5,15.8,22,30.22,10.0,SSW,6.9,-,N/A,,Clear,200,2013-02-18 20:15:00
3:35 PM,55.4,16.7,22,30.21,10.0,South,5.8,-,N/A,,Clear,190,2013-02-18 20:35:00
3:55 PM,55.4,16.7,22,30.21,10.0,SW,5.8,-,N/A,,Clear,230,2013-02-18 20:55:00
4:35 PM,53.2,17.6,25,30.20,10.0,South,8.1,-,N/A,,Clear,180,2013-02-18 21:35:00
4:55 PM,52.3,18.7,27,30.21,10.0,SSW,9.2,-,N/A,,Clear,200,2013-02-18 21:55:00
5:15 PM,50.9,19.0,28,30.21,10.0,South,4.6,-,N/A,,Clear,190,2013-02-18 22:15:00
5:35 PM,50.2,20.1,31,30.21,10.0,South,5.8,-,N/A,,Clear,190,2013-02-18 22:35:00
6:15 PM,47.1,20.7,35,30.22,10.0,SSW,4.6,-,N/A,,Clear,200,2013-02-18 23:15:00
7:15 PM,45.0,21.9,40,30.22,10.0,South,3.5,-,N/A,,Clear,190,2013-02-19 00:15:00
7:55 PM,41.7,18.0,38,30.21,10.0,Calm,Calm,-,N/A,,Clear,0,2013-02-19 00:55:00
8:15 PM,39.4,13.6,35,30.20,10.0,Calm,Calm,-,N/A,,Clear,0,2013-02-19 01:15:00
8:35 PM,38.7,14.0,37,30.20,10.0,Calm,Calm,-,N/A,,Clear,0,2013-02-19 01:35:00
8:55 PM,37.9,17.6,44,30.19,10.0,SSE,4.6,-,N/A,,Clear,150,2013-02-19 01:55:00
9:15 PM,39.6,21.2,48,30.19,10.0,SSE,3.5,-,N/A,,Clear,150,2013-02-19 02:15:00
9:35 PM,39.6,21.7,49,30.19,10.0,SSE,4.6,-,N/A,,Clear,150,2013-02-19 02:35:00
9:55 PM,39.6,22.6,51,30.18,10.0,SSE,5.8,-,N/A,,Clear,150,2013-02-19 02:55:00
10:15 PM,40.1,23.9,52,30.19,10.0,SSE,5.8,-,N/A,,Clear,160,2013-02-19 03:15:00
10:35 PM,40.1,24.1,53,30.19,10.0,SSE,3.5,-,N/A,,Clear,160,2013-02-19 03:35:00
10:55 PM,39.4,23.4,53,30.17,10.0,SE,3.5,-,N/A,,Clear,130,2013-02-19 03:55:00
11:15 PM,37.8,21.6,52,30.16,10.0,ESE,3.5,-,N/A,,Clear,120,2013-02-19 04:15:00
11:35 PM,37.8,22.5,54,30.15,10.0,SE,4.6,-,N/A,,Clear,140,2013-02-19 04:35:00
11:55 PM,37.8,23.4,56,30.15,10.0,SE,4.6,-,N/A,,Clear,140,2013-02-19 04:55:00